| time (UTC) | temp C | wind direction | speed KPH | gust KPH | rain 1hr cm | rain 24hr cm | rain mn cm | humidity % | barometer mb |
| 20260504003421 | 11 | 278 | 9.7 | 12.9 | 0.00 | 0.00 | 0.00 | 79 | 1018.0 |
| 20260504002921 | 11 | 264 | 6.4 | 12.9 | 0.00 | 0.00 | 0.00 | 79 | 1018.0 |
| 20260504002421 | 11 | 252 | 6.4 | 9.7 | 0.00 | 0.00 | 0.00 | 79 | 1018.0 |
| 20260504001925 | 11 | 280 | 0.0 | 8.0 | 0.00 | 0.00 | 0.00 | 80 | 1018.0 |
| 20260504001421 | 11 | 298 | 0.0 | 6.4 | 0.00 | 0.00 | 0.00 | 81 | 1018.0 |
| 20260504000922 | 11 | 259 | 3.2 | 9.7 | 0.00 | 0.00 | 0.00 | 81 | 1018.0 |
| 20260504000423 | 11 | 261 | 3.2 | 12.9 | 0.00 | 0.00 | 0.00 | 81 | 1018.0 |
| 20260503235921 | 11 | 284 | 8.0 | 11.3 | 0.00 | 0.00 | 0.00 | 81 | 1018.0 |
| 20260503235425 | 11 | 294 | 6.4 | 8.0 | 0.00 | 0.00 | 0.00 | 82 | 1018.0 |
| 20260503234921 | 11 | 282 | 0.0 | 6.4 | 0.00 | 0.00 | 0.00 | 82 | 1018.0 |
| 20260503234424 | 11 | 308 | 4.8 | 9.7 | 0.00 | 0.00 | 0.00 | 82 | 1018.0 |
| 20260503233921 | 10 | 300 | 3.2 | 8.0 | 0.00 | 0.00 | 0.00 | 82 | 1018.0 |
| 20260503233421 | 11 | 309 | 8.0 | 9.7 | 0.00 | 0.00 | 0.00 | 82 | 1018.0 |
| 20260503232921 | 10 | 277 | 4.8 | 8.0 | 0.00 | 0.00 | 0.00 | 83 | 1018.0 |
| 20260503232424 | 10 | 308 | 4.8 | 9.7 | 0.00 | 0.00 | 0.00 | 82 | 1018.0 |
| 20260503231922 | 10 | 307 | 6.4 | 9.7 | 0.00 | 0.00 | 0.00 | 82 | 1018.0 |
| 20260503231421 | 10 | 310 | 4.8 | 9.7 | 0.00 | 0.00 | 0.00 | 82 | 1018.0 |
| 20260503230921 | 10 | 304 | 8.0 | 9.7 | 0.00 | 0.00 | 0.00 | 81 | 1018.0 |
| 20260503230421 | 10 | 299 | 3.2 | 8.0 | 0.00 | 0.00 | 0.00 | 81 | 1018.0 |
| 20260503225921 | 10 | 308 | 3.2 | 8.0 | 0.00 | 0.00 | 0.00 | 81 | 1018.0 |
| 20260503225421 | 10 | 304 | 4.8 | 8.0 | 0.00 | 0.00 | 0.00 | 79 | 1018.0 |
| 20260503224924 | 10 | 305 | 0.0 | 8.0 | 0.00 | 0.00 | 0.00 | 79 | 1018.0 |
| 20260503224421 | 11 | 297 | 3.2 | 8.0 | 0.00 | 0.00 | 0.00 | 79 | 1018.0 |
| 20260503223921 | 11 | 281 | 4.8 | 9.7 | 0.00 | 0.00 | 0.00 | 80 | 1018.0 |
| 20260503223421 | 11 | 280 | 3.2 | 8.0 | 0.00 | 0.00 | 0.00 | 80 | 1018.0 |
| 20260503222921 | 11 | 266 | 0.0 | 8.0 | 0.00 | 0.00 | 0.00 | 80 | 1018.0 |
| 20260503222421 | 11 | 301 | 6.4 | 8.0 | 0.00 | 0.00 | 0.00 | 80 | 1018.0 |
| 20260503221924 | 11 | 270 | 4.8 | 11.3 | 0.00 | 0.00 | 0.00 | 80 | 1018.0 |
| 20260503221421 | 11 | 240 | 6.4 | 11.3 | 0.00 | 0.00 | 0.00 | 80 | 1018.0 |
| 20260503220921 | 11 | 271 | 6.4 | 8.0 | 0.00 | 0.00 | 0.00 | 80 | 1018.0 |
| 20260503220421 | 11 | 257 | 0.0 | 8.0 | 0.00 | 0.00 | 0.00 | 80 | 1018.0 |
| 20260503215921 | 11 | 266 | 0.0 | 9.7 | 0.00 | 0.00 | 0.00 | 80 | 1018.0 |
| 20260503215421 | 11 | 298 | 4.8 | 8.0 | 0.00 | 0.00 | 0.00 | 79 | 1018.0 |
| 20260503214921 | 10 | 272 | 0.0 | 8.0 | 0.00 | 0.00 | 0.00 | 78 | 1018.0 |
| 20260503214424 | 11 | 271 | 0.0 | 8.0 | 0.00 | 0.00 | 0.00 | 78 | 1018.0 |
| 20260503213921 | 11 | 260 | 4.8 | 8.0 | 0.00 | 0.00 | 0.00 | 78 | 1018.0 |
| 20260503213421 | 11 | 293 | 0.0 | 6.4 | 0.00 | 0.00 | 0.00 | 78 | 1018.0 |
| 20260503212920 | 11 | 291 | 3.2 | 6.4 | 0.00 | 0.00 | 0.00 | 78 | 1018.0 |
| 20260503212421 | 11 | 266 | 0.0 | 6.4 | 0.00 | 0.00 | 0.00 | 78 | 1018.0 |
| 20260503211921 | 11 | 315 | 4.8 | 8.0 | 0.00 | 0.00 | 0.00 | 78 | 1018.0 |
| 20260503211421 | 11 | 312 | 0.0 | 9.7 | 0.00 | 0.00 | 0.00 | 77 | 1018.0 |
| 20260503210924 | 11 | 311 | 6.4 | 8.0 | 0.00 | 0.00 | 0.00 | 76 | 1018.0 |
| 20260503210420 | 11 | 299 | 3.2 | 6.4 | 0.00 | 0.00 | 0.00 | 76 | 1018.0 |
| 20260503205921 | 11 | 310 | 0.0 | 6.4 | 0.00 | 0.00 | 0.00 | 76 | 1018.0 |
| 20260503205421 | 11 | 318 | 3.2 | 8.0 | 0.00 | 0.00 | 0.00 | 76 | 1018.0 |
| 20260503204921 | 11 | 282 | 3.2 | 9.7 | 0.00 | 0.00 | 0.00 | 76 | 1018.0 |
| 20260503204421 | 11 | 292 | 3.2 | 9.7 | 0.00 | 0.00 | 0.00 | 76 | 1018.0 |
| 20260503203920 | 11 | 305 | 6.4 | 9.7 | 0.00 | 0.00 | 0.00 | 76 | 1018.0 |
| 20260503203421 | 11 | 305 | 6.4 | 9.7 | 0.00 | 0.00 | 0.00 | 75 | 1018.0 |
| 20260503202920 | 11 | 309 | 6.4 | 9.7 | 0.00 | 0.00 | 0.00 | 75 | 1018.0 |
| 20260503202421 | 11 | 314 | 6.4 | 9.7 | 0.00 | 0.00 | 0.00 | 74 | 1018.0 |
| 20260503201921 | 11 | 314 | 0.0 | 6.4 | 0.00 | 0.00 | 0.00 | 74 | 1018.0 |
| 20260503201420 | 11 | 310 | 3.2 | 8.0 | 0.00 | 0.00 | 0.00 | 73 | 1018.0 |
| 20260503200923 | 11 | 315 | 6.4 | 11.3 | 0.00 | 0.00 | 0.00 | 73 | 1018.0 |
| 20260503200421 | 12 | 307 | 0.0 | 8.0 | 0.00 | 0.00 | 0.00 | 72 | 1018.0 |
| 20260503195920 | 12 | 306 | 4.8 | 9.7 | 0.00 | 0.00 | 0.00 | 72 | 1018.0 |
| 20260503195424 | 12 | 313 | 0.0 | 6.4 | 0.00 | 0.00 | 0.00 | 71 | 1018.0 |
| 20260503194920 | 12 | 307 | 0.0 | 4.8 | 0.00 | 0.00 | 0.00 | 71 | 1018.0 |
| 20260503194420 | 12 | 305 | 0.0 | 6.4 | 0.00 | 0.00 | 0.00 | 71 | 1018.0 |
| 20260503193921 | 12 | 276 | 0.0 | 9.7 | 0.00 | 0.00 | 0.00 | 71 | 1018.0 |
| 20260503193421 | 12 | 310 | 0.0 | 8.0 | 0.00 | 0.00 | 0.00 | 71 | 1018.0 |
| 20260503192920 | 12 | 292 | 0.0 | 8.0 | 0.00 | 0.00 | 0.00 | 70 | 1018.0 |
| 20260503192420 | 12 | 277 | 3.2 | 8.0 | 0.00 | 0.00 | 0.00 | 70 | 1018.0 |
| 20260503191920 | 13 | 321 | 0.0 | 6.4 | 0.00 | 0.00 | 0.00 | 68 | 1018.0 |
| 20260503191421 | 13 | 326 | 0.0 | 12.9 | 0.00 | 0.00 | 0.00 | 69 | 1018.0 |
| 20260503190920 | 13 | 306 | 0.0 | 8.0 | 0.00 | 0.00 | 0.00 | 68 | 1018.0 |
| 20260503190420 | 13 | 325 | 6.4 | 11.3 | 0.00 | 0.00 | 0.00 | 68 | 1018.0 |
| 20260503185923 | 13 | 292 | 3.2 | 6.4 | 0.00 | 0.00 | 0.00 | 67 | 1018.0 |
| 20260503185420 | 13 | 318 | 0.0 | 6.4 | 0.00 | 0.00 | 0.00 | 67 | 1018.0 |
| 20260503184921 | 13 | 300 | 4.8 | 12.9 | 0.00 | 0.00 | 0.00 | 69 | 1018.0 |
| 20260503184420 | 13 | 297 | 6.4 | 11.3 | 0.00 | 0.00 | 0.00 | 69 | 1017.0 |
| 20260503183920 | 13 | 312 | 6.4 | 12.9 | 0.00 | 0.00 | 0.00 | 67 | 1017.0 |
| 20260503183421 | 14 | 318 | 8.0 | 9.7 | 0.00 | 0.00 | 0.00 | 66 | 1017.0 |
| 20260503182924 | 14 | 323 | 0.0 | 8.0 | 0.00 | 0.00 | 0.00 | 65 | 1018.0 |
| 20260503182420 | 14 | 326 | 3.2 | 8.0 | 0.00 | 0.00 | 0.00 | 65 | 1018.0 |
| 20260503181923 | 15 | 331 | 0.0 | 9.7 | 0.00 | 0.00 | 0.00 | 63 | 1018.0 |
| 20260503181423 | 15 | 324 | 0.0 | 6.4 | 0.00 | 0.00 | 0.00 | 63 | 1017.0 |
| 20260503180920 | 15 | 325 | 3.2 | 8.0 | 0.00 | 0.00 | 0.00 | 61 | 1017.0 |
| 20260503180420 | 16 | 322 | 3.2 | 6.4 | 0.00 | 0.00 | 0.00 | 61 | 1017.0 |
| 20260503175920 | 16 | 325 | 0.0 | 4.8 | 0.00 | 0.00 | 0.00 | 59 | 1017.0 |
| 20260503175420 | 16 | 317 | 0.0 | 0.0 | 0.00 | 0.00 | 0.00 | 58 | 1017.0 |
| 20260503174920 | 17 | 325 | 3.2 | 8.0 | 0.00 | 0.00 | 0.00 | 57 | 1017.0 |
| 20260503174421 | 17 | 11 | 0.0 | 4.8 | 0.00 | 0.00 | 0.00 | 55 | 1017.0 |
| 20260503173920 | 17 | 45 | 0.0 | 0.0 | 0.00 | 0.00 | 0.00 | 53 | 1017.0 |
| 20260503173420 | 18 | 50 | 0.0 | 3.2 | 0.00 | 0.00 | 0.00 | 52 | 1017.0 |
| 20260503172920 | 19 | 72 | 0.0 | 0.0 | 0.00 | 0.00 | 0.00 | 46 | 1017.0 |
| 20260503172420 | 19 | 72 | 0.0 | 0.0 | 0.00 | 0.00 | 0.00 | 45 | 1017.0 |
| 20260503171921 | 19 | 72 | 0.0 | 0.0 | 0.00 | 0.00 | 0.00 | 45 | 1017.0 |
| 20260503171420 | 20 | 72 | 0.0 | 0.0 | 0.00 | 0.00 | 0.00 | 45 | 1017.0 |
| 20260503170923 | 20 | 72 | 0.0 | 0.0 | 0.00 | 0.00 | 0.00 | 44 | 1017.0 |
| 20260503170420 | 20 | 72 | 0.0 | 0.0 | 0.00 | 0.00 | 0.00 | 43 | 1017.0 |
| 20260503150920 | 23 | 81 | 12.9 | 16.1 | 0.00 | 0.00 | 0.00 | 37 | 1017.0 |
| 20260503150420 | 24 | 113 | 11.3 | 12.9 | 0.00 | 0.00 | 0.00 | 37 | 1017.0 |
| 20260503130920 | 23 | 117 | 6.4 | 12.9 | 0.00 | 0.00 | 0.00 | 35 | 1018.0 |
| 20260503130420 | 23 | 132 | 8.0 | 12.9 | 0.00 | 0.00 | 0.00 | 35 | 1018.0 |
| 20260503110420 | 23 | 123 | 11.3 | 12.9 | 0.00 | 0.00 | 0.00 | 36 | 1019.0 |
| 20260503090422 | 22 | 60 | 0.0 | 3.2 | 0.00 | 0.00 | 0.00 | 37 | 1020.0 |
| 20260503081419 | 20 | 218 | 0.0 | 4.8 | 0.00 | 0.00 | 0.00 | 42 | 1021.1 |
| 20260503080920 | 20 | 223 | 0.0 | 0.0 | 0.00 | 0.00 | 0.00 | 43 | 1021.1 |
| 20260503080419 | 20 | 213 | 0.0 | 4.8 | 0.00 | 0.00 | 0.00 | 44 | 1021.1 |
| 20260503072919 | 17 | 224 | 0.0 | 9.7 | 0.00 | 0.00 | 0.00 | 51 | 1021.1 |
| 20260503072421 | 17 | 285 | 4.8 | 12.9 | 0.00 | 0.00 | 0.00 | 53 | 1021.1 |
| 20260503071919 | 16 | 239 | 6.4 | 12.9 | 0.00 | 0.00 | 0.00 | 54 | 1021.1 |
| 20260503071419 | 16 | 209 | 0.0 | 0.0 | 0.00 | 0.00 | 0.00 | 55 | 1021.1 |
| 20260503070920 | 16 | 260 | 0.0 | 0.0 | 0.00 | 0.00 | 0.00 | 56 | 1021.1 |
| 20260503070420 | 15 | 219 | 0.0 | 0.0 | 0.00 | 0.00 | 0.00 | 57 | 1021.1 |
| 20260503054919 | 10 | 267 | 4.8 | 12.9 | 0.00 | 0.00 | 0.00 | 70 | 1021.1 |
| 20260503054420 | 10 | 277 | 9.7 | 12.9 | 0.00 | 0.00 | 0.00 | 71 | 1021.1 |
| 20260503053919 | 9 | 264 | 6.4 | 12.9 | 0.00 | 0.00 | 0.00 | 73 | 1021.1 |
| 20260503053419 | 9 | 277 | 9.7 | 14.5 | 0.00 | 0.00 | 0.00 | 74 | 1021.1 |
| 20260503052919 | 9 | 277 | 11.3 | 12.9 | 0.00 | 0.00 | 0.00 | 73 | 1021.1 |
| 20260503052423 | 8 | 274 | 8.0 | 12.9 | 0.00 | 0.00 | 0.00 | 73 | 1021.1 |
| 20260503051919 | 8 | 253 | 9.7 | 14.5 | 0.00 | 0.00 | 0.00 | 73 | 1021.1 |
| 20260503051419 | 8 | 274 | 12.9 | 14.5 | 0.00 | 0.00 | 0.00 | 73 | 1021.1 |
| 20260503050922 | 8 | 257 | 11.3 | 17.7 | 0.00 | 0.00 | 0.00 | 73 | 1021.1 |
| 20260503050419 | 8 | 253 | 8.0 | 14.5 | 0.00 | 0.00 | 0.00 | 74 | 1021.1 |
| 20260503045922 | 8 | 252 | 9.7 | 12.9 | 0.00 | 0.00 | 0.00 | 74 | 1021.1 |
| 20260503045419 | 8 | 240 | 9.7 | 16.1 | 0.00 | 0.00 | 0.00 | 75 | 1021.1 |
| 20260503044919 | 8 | 277 | 8.0 | 19.3 | 0.00 | 0.00 | 0.00 | 75 | 1021.1 |
| 20260503044420 | 8 | 244 | 12.9 | 16.1 | 0.00 | 0.00 | 0.00 | 76 | 1021.1 |
| 20260503043919 | 8 | 253 | 9.7 | 16.1 | 0.00 | 0.00 | 0.00 | 76 | 1021.1 |
| 20260503043419 | 8 | 276 | 8.0 | 16.1 | 0.00 | 0.00 | 0.00 | 76 | 1021.1 |
| 20260503042920 | 8 | 262 | 11.3 | 16.1 | 0.00 | 0.00 | 0.00 | 76 | 1021.1 |
| 20260503042419 | 8 | 270 | 8.0 | 12.9 | 0.00 | 0.00 | 0.00 | 76 | 1021.1 |
| 20260503041919 | 8 | 251 | 8.0 | 12.9 | 0.00 | 0.00 | 0.00 | 76 | 1021.1 |
| 20260503041420 | 8 | 245 | 8.0 | 16.1 | 0.00 | 0.00 | 0.00 | 77 | 1021.1 |
| 20260503040919 | 8 | 252 | 11.3 | 16.1 | 0.00 | 0.00 | 0.00 | 78 | 1021.1 |
| 20260503040422 | 8 | 247 | 6.4 | 12.9 | 0.00 | 0.00 | 0.00 | 78 | 1021.1 |
| 20260503035919 | 8 | 251 | 6.4 | 16.1 | 0.00 | 0.00 | 0.00 | 77 | 1021.1 |
| 20260503035419 | 8 | 265 | 11.3 | 12.9 | 0.00 | 0.00 | 0.00 | 78 | 1021.1 |
| 20260503034920 | 8 | 281 | 6.4 | 12.9 | 0.00 | 0.00 | 0.00 | 78 | 1021.1 |
| 20260503034419 | 8 | 253 | 9.7 | 14.5 | 0.00 | 0.00 | 0.00 | 78 | 1021.1 |
| 20260503033920 | 8 | 263 | 8.0 | 12.9 | 0.00 | 0.00 | 0.00 | 79 | 1021.1 |
| 20260503033420 | 8 | 251 | 8.0 | 12.9 | 0.00 | 0.00 | 0.00 | 79 | 1021.1 |
| 20260503032919 | 7 | 260 | 4.8 | 12.9 | 0.00 | 0.00 | 0.00 | 79 | 1021.1 |
| 20260503032419 | 7 | 267 | 9.7 | 14.5 | 0.00 | 0.00 | 0.00 | 79 | 1021.1 |
| 20260503031919 | 8 | 258 | 9.7 | 16.1 | 0.00 | 0.00 | 0.00 | 79 | 1021.1 |
| 20260503031419 | 8 | 258 | 8.0 | 14.5 | 0.00 | 0.00 | 0.00 | 79 | 1020.0 |
| 20260503030919 | 8 | 256 | 8.0 | 11.3 | 0.00 | 0.00 | 0.00 | 78 | 1020.0 |
| 20260503030422 | 8 | 275 | 6.4 | 12.9 | 0.00 | 0.00 | 0.00 | 78 | 1020.0 |
| 20260503025919 | 8 | 273 | 8.0 | 12.9 | 0.00 | 0.00 | 0.00 | 76 | 1021.1 |
| 20260503025419 | 8 | 306 | 6.4 | 11.3 | 0.00 | 0.00 | 0.00 | 76 | 1021.1 |
| 20260503024920 | 8 | 250 | 8.0 | 12.9 | 0.00 | 0.00 | 0.00 | 77 | 1021.1 |
| 20260503024419 | 8 | 259 | 9.7 | 12.9 | 0.00 | 0.00 | 0.00 | 76 | 1021.1 |
| 20260503023919 | 8 | 253 | 11.3 | 16.1 | 0.00 | 0.00 | 0.00 | 77 | 1021.1 |
| 20260503023420 | 8 | 273 | 9.7 | 12.9 | 0.00 | 0.00 | 0.00 | 77 | 1021.1 |
| 20260503022920 | 8 | 291 | 8.0 | 12.9 | 0.00 | 0.00 | 0.00 | 78 | 1021.1 |
| 20260503022419 | 8 | 257 | 8.0 | 12.9 | 0.00 | 0.00 | 0.00 | 78 | 1021.1 |
| 20260503021920 | 8 | 271 | 8.0 | 12.9 | 0.00 | 0.00 | 0.00 | 78 | 1021.1 |
| 20260503021419 | 8 | 254 | 3.2 | 9.7 | 0.00 | 0.00 | 0.00 | 78 | 1021.1 |
| 20260503020919 | 8 | 272 | 4.8 | 9.7 | 0.00 | 0.00 | 0.00 | 78 | 1021.1 |
| 20260503020419 | 8 | 272 | 8.0 | 11.3 | 0.00 | 0.00 | 0.00 | 78 | 1021.1 |
| 20260503015919 | 8 | 284 | 6.4 | 11.3 | 0.00 | 0.00 | 0.00 | 78 | 1021.1 |
| 20260503015419 | 8 | 258 | 9.7 | 12.9 | 0.00 | 0.00 | 0.00 | 78 | 1021.1 |
| 20260503014919 | 8 | 258 | 11.3 | 14.5 | 0.00 | 0.00 | 0.00 | 78 | 1021.1 |
| 20260503014419 | 8 | 275 | 9.7 | 11.3 | 0.00 | 0.00 | 0.00 | 78 | 1021.1 |
| 20260503013920 | 8 | 284 | 0.0 | 0.0 | 0.00 | 0.00 | 0.00 | 77 | 1021.1 |
| 20260503013419 | 8 | 301 | 0.0 | 8.0 | 0.00 | 0.00 | 0.00 | 78 | 1021.1 |
| 20260503012919 | 8 | 297 | 6.4 | 12.9 | 0.00 | 0.00 | 0.00 | 78 | 1021.1 |
| 20260503012420 | 8 | 277 | 8.0 | 11.3 | 0.00 | 0.00 | 0.00 | 78 | 1021.1 |
| 20260503011919 | 8 | 250 | 6.4 | 9.7 | 0.00 | 0.00 | 0.00 | 78 | 1021.1 |
| 20260503011420 | 8 | 283 | 3.2 | 4.8 | 0.00 | 0.00 | 0.00 | 78 | 1021.1 |
| 20260503010920 | 8 | 280 | 0.0 | 0.0 | 0.00 | 0.00 | 0.00 | 78 | 1021.1 |
| 20260503010422 | 8 | 279 | 0.0 | 9.7 | 0.00 | 0.00 | 0.00 | 76 | 1021.1 |
| 20260503005919 | 8 | 308 | 6.4 | 9.7 | 0.00 | 0.00 | 0.00 | 75 | 1021.1 |
| 20260503005419 | 9 | 273 | 3.2 | 14.5 | 0.00 | 0.00 | 0.00 | 75 | 1021.1 |
| 20260503004919 | 9 | 232 | 3.2 | 12.9 | 0.00 | 0.00 | 0.00 | 75 | 1021.1 |
| 20260503004419 | 9 | 260 | 8.0 | 12.9 | 0.00 | 0.00 | 0.00 | 75 | 1021.1 |
| 20260503003919 | 9 | 272 | 11.3 | 16.1 | 0.00 | 0.00 | 0.00 | 75 | 1021.1 |